This demonstration page uses our WeatherBlox Daily Observations layout. Learn more.

41.55636, -103.73856

Hourly Observations for April 11, 2015

Temp ( °F °C ) Dew Point ( °F °C ) Humidity (%) Winds ( mph kmh ) Pressure ( in mb ) Visibility ( mi km ) Precip ( " mm )
12:53 am 00:53 Clear 46 7.8 34 1.1 63 63 SE 6 9 29.9 1013 10 16.0934 0 0
1:53 am 01:53 Clear 43 6.1 34 1.1 71 71 ENE 10 17 29.9 1012 10 16.0934 0 0
2:53 am 02:53 Clear 41 5 34 1.1 76 76 E 9 15 29.89 1012 10 16.0934 0 0
3:53 am 03:53 Clear 38 3.3 33 0.6 83 83 E 6 9 29.89 1012 10 16.0934 0 0
4:53 am 04:53 Clear 36 2.2 31 -0.6 82 82 E 8 13 29.9 1013 10 16.0934 0 0
5:53 am 05:53 Clear 36 2.2 32 0 86 86 E 5 7 29.9 1013 10 16.0934 0 0
6:53 am 06:53 Sunny 35 1.7 31 -0.6 85 85 VRB 6 9 29.92 1013 10 16.0934 0 0
7:53 am 07:53 Sunny 42 5.6 36 2.2 79 79 E 8 13 29.91 1013 10 16.0934 0 0
8:53 am 08:53 Sunny 50 10 37 2.8 61 61 Calm 29.89 1012 10 16.0934 0 0
9:53 am 09:53 Sunny 57 13.9 37 2.8 47 47 Calm 29.87 1011 10 16.0934 0 0
10:53 am 10:53 Sunny 62 16.7 37 2.8 40 40 VRB 3 6 29.83 1010 10 16.0934 0 0
11:53 am 11:53 Sunny 68 20 36 2.2 31 31 Calm 29.78 1008 10 16.0934 0 0
12:53 pm 12:53 Sunny 70 21.1 24 -4.4 18 18 SSW 9 15 29.74 1007 10 16.0934 0 0
1:53 pm 13:53 Sunny 74 23.3 22 -5.6 14 14 S 17 28 29.7 1006 10 16.0934 0 0
2:53 pm 14:53 Sunny 75 23.9 20 -6.7 12 12 W 9 15 29.67 1005 10 16.0934 0 0
3:14 pm 15:14 Sunny 75 24 21 -6 13 13 S 14 22 29.47 998 10 16.0934 0 0
3:53 pm 15:53 Mostly Sunny 72 22.2 22 -5.6 15 15 WSW 7 11 29.67 1005 10 16.0934 0 0
4:53 pm 16:53 Sunny 74 23.3 23 -5 15 15 W 14 22 29.65 1004 10 16.0934 0 0
5:53 pm 17:53 Sunny 72 22.2 25 -3.9 17 17 SSW 7 11 29.64 1004 10 16.0934 0 0
6:53 pm 18:53 Sunny 68 20 27 -2.8 21 21 SW 9 15 29.64 1004 10 16.0934 0 0
7:53 pm 19:53 Clear 62 16.7 28 -2.2 28 28 SSW 6 9 29.64 1004 10 16.0934 0 0
8:53 pm 20:53 Clear 55 12.8 33 0.6 44 44 E 7 11 29.64 1004 10 16.0934 0 0
9:53 pm 21:53 Clear 57 13.9 28 -2.2 33 33 S 8 13 29.61 1003 10 16.0934 0 0
10:53 pm 22:53 Clear 50 10 34 1.1 54 54 E 6 9 29.61 1003 10 16.0934 0 0
11:53 pm 23:53 Clear 46 7.8 33 0.6 61 61 N 6 9 29.62 1003 10 16.0934 0 0

Powered by AerisWeather